CW9133 Weather Reports


Display with metric or nautical units.
time (UTC)temp
F
wind
direction
speed
MPH
gust
MPH
rain 1hr
in
rain 24hr
in
rain mn
in
humidity
%
barometer
mb
20171020135802 57 157 2.0 5.0 0.00 0.00 0.00 81 1023.2
20171020135302 57 168 3.0 5.0 0.00 0.00 0.00 82 1023.1
20171020134802 56 173 2.0 3.0 0.00 0.00 0.00 83 1023.1
20171020134302 56 173 2.0 3.0 0.00 0.00 0.00 85 1023.1
20171020133802 55 173 2.0 7.0 0.00 0.00 0.00 85 1023.1
20171020133302 54 183 2.0 3.0 0.00 0.00 0.00 87 1023.1
20171020132802 54 183 2.0 3.0 0.00 0.00 0.00 88 1023.1
20171020132302 53 183 2.0 3.0 0.00 0.00 0.00 88 1023.1
20171020131802 53 183 3.0 5.0 0.00 0.00 0.00 89 1023.0
20171020131302 53 183 2.0 3.0 0.00 0.00 0.00 89 1023.0
20171020130801 53 183 2.0 5.0 0.00 0.00 0.00 89 1023.0
20171020130302 52 183 1.0 3.0 0.00 0.00 0.00 89 1023.0
20171020125802 52 183 1.0 3.0 0.00 0.00 0.00 89 1022.9
20171020125302 52 183 1.0 2.0 0.00 0.00 0.00 89 1022.9
20171020124802 52 183 1.0 2.0 0.00 0.00 0.00 89 1022.8
20171020124302 52 183 1.0 2.0 0.00 0.00 0.00 89 1022.8
20171020123801 52 183 1.0 2.0 0.00 0.00 0.00 89 1022.7
20171020123302 52 183 0.0 0.0 0.00 0.00 0.00 88 1022.6
20171020122802 52 183 0.0 1.0 0.00 0.00 0.00 88 1022.6
20171020122301 52 183 0.0 1.0 0.00 0.00 0.00 88 1022.6
20171020121803 52 183 0.0 2.0 0.00 0.00 0.00 88 1022.6
20171020121302 52 183 0.0 1.0 0.00 0.00 0.00 88 1022.5
20171020120802 52 183 1.0 2.0 0.00 0.00 0.00 88 1022.5
20171020120302 53 183 1.0 2.0 0.00 0.00 0.00 87 1022.4
20171020115802 53 183 1.0 2.0 0.00 0.00 0.00 87 1022.4
20171020115302 53 183 1.0 2.0 0.00 0.00 0.00 87 1022.5
20171020114802 53 183 1.0 3.0 0.00 0.00 0.00 87 1022.5
20171020114302 53 183 1.0 3.0 0.00 0.00 0.00 87 1022.5
20171020113802 53 183 1.0 3.0 0.00 0.00 0.00 87 1022.4
20171020113302 53 183 1.0 2.0 0.00 0.00 0.00 86 1022.4
20171020112802 53 183 1.0 3.0 0.00 0.00 0.00 86 1022.4
20171020112302 53 183 1.0 3.0 0.00 0.00 0.00 86 1022.3
20171020111802 53 183 0.0 2.0 0.00 0.00 0.00 86 1022.3
20171020111302 53 183 0.0 3.0 0.00 0.00 0.00 86 1022.3
20171020110802 53 183 1.0 3.0 0.00 0.00 0.00 86 1022.4
20171020110302 53 183 1.0 3.0 0.00 0.00 0.00 86 1022.4
20171020105802 53 183 1.0 3.0 0.00 0.00 0.00 86 1022.4
20171020105301 53 183 1.0 3.0 0.00 0.00 0.00 85 1022.4
20171020104802 53 183 2.0 3.0 0.00 0.00 0.00 85 1022.4
20171020104303 53 183 2.0 3.0 0.00 0.00 0.00 85 1022.4
20171020103802 53 183 2.0 3.0 0.00 0.00 0.00 85 1022.4
20171020103302 54 183 2.0 3.0 0.00 0.00 0.00 85 1022.4
20171020102802 54 183 2.0 3.0 0.00 0.00 0.00 85 1022.4
20171020102305 54 183 1.0 3.0 0.00 0.00 0.00 84 1022.4
20171020101802 54 183 2.0 3.0 0.00 0.00 0.00 84 1022.4
20171020101302 54 183 2.0 3.0 0.00 0.00 0.00 84 1022.4
20171020100802 54 183 2.0 3.0 0.00 0.00 0.00 84 1022.3
20171020100303 54 183 2.0 3.0 0.00 0.00 0.00 84 1022.3
20171020095802 54 183 2.0 3.0 0.00 0.00 0.00 84 1022.2
20171020095302 54 183 2.0 3.0 0.00 0.00 0.00 84 1022.2
20171020094802 54 183 2.0 3.0 0.00 0.00 0.00 84 1022.2
20171020094301 54 183 2.0 3.0 0.00 0.00 0.00 84 1022.2
20171020093802 54 183 2.0 6.0 0.00 0.00 0.00 84 1022.2
20171020093302 54 183 2.0 3.0 0.00 0.00 0.00 83 1022.1
20171020092802 54 183 2.0 3.0 0.00 0.00 0.00 83 1022.1
20171020092304 54 183 2.0 3.0 0.00 0.00 0.00 83 1022.0
20171020091802 54 183 2.0 3.0 0.00 0.00 0.00 83 1022.0
20171020091302 54 183 2.0 3.0 0.00 0.00 0.00 83 1021.9
20171020090802 54 183 2.0 3.0 0.00 0.00 0.00 83 1021.9
20171020090302 54 183 2.0 3.0 0.00 0.00 0.00 82 1021.9
20171020085803 54 183 2.0 3.0 0.00 0.00 0.00 82 1021.9
20171020085304 54 183 2.0 3.0 0.00 0.00 0.00 82 1021.9
20171020084802 54 183 2.0 3.0 0.00 0.00 0.00 82 1021.9
20171020084302 54 183 1.0 3.0 0.00 0.00 0.00 82 1021.8
20171020083802 54 183 1.0 3.0 0.00 0.00 0.00 81 1021.8
20171020083302 54 183 1.0 2.0 0.00 0.00 0.00 81 1021.8
20171020082802 54 183 1.0 3.0 0.00 0.00 0.00 80 1021.9
20171020082302 54 183 1.0 2.0 0.00 0.00 0.00 80 1021.9
20171020081802 54 183 1.0 3.0 0.00 0.00 0.00 80 1021.8
20171020081302 54 183 1.0 3.0 0.00 0.00 0.00 79 1021.9
20171020080802 54 183 2.0 3.0 0.00 0.00 0.00 79 1021.8
20171020080303 54 183 2.0 3.0 0.00 0.00 0.00 79 1021.9
20171020075803 54 183 2.0 3.0 0.00 0.00 0.00 78 1021.9
20171020075302 55 183 1.0 3.0 0.00 0.00 0.00 78 1021.9
20171020074802 55 183 2.0 3.0 0.00 0.00 0.00 78 1021.9
20171020074302 55 183 2.0 3.0 0.00 0.00 0.00 77 1021.9
20171020073802 55 183 2.0 3.0 0.00 0.00 0.00 77 1021.9
20171020073302 55 183 2.0 3.0 0.00 0.00 0.00 76 1021.8
20171020072802 54 171 3.0 5.0 0.00 0.00 0.00 75 1021.9
20171020072305 54 154 2.0 3.0 0.00 0.00 0.00 74 1021.9
20171020071802 54 154 2.0 3.0 0.00 0.00 0.00 74 1021.8
20171020071303 54 153 2.0 5.0 0.00 0.00 0.00 73 1021.9
20171020070803 54 143 2.0 3.0 0.00 0.00 0.00 72 1021.8
20171020070303 55 143 1.0 2.0 0.00 0.00 0.00 71 1021.8
20171020065802 55 142 1.0 2.0 0.00 0.00 0.00 71 1021.8
20171020065303 55 143 1.0 2.0 0.00 0.00 0.00 70 1021.8
20171020064802 55 143 1.0 2.0 0.00 0.00 0.00 69 1021.9
20171020064302 55 143 1.0 2.0 0.00 0.00 0.00 68 1021.8
20171020063802 55 143 1.0 2.0 0.00 0.00 0.00 68 1021.8
20171020063302 55 143 1.0 2.0 0.00 0.00 0.00 67 1021.8
20171020062802 56 143 1.0 2.0 0.00 0.00 0.00 66 1021.8
20171020062302 56 143 1.0 3.0 0.00 0.00 0.00 66 1021.8
20171020061802 56 143 1.0 2.0 0.00 0.00 0.00 65 1021.8
20171020061302 56 143 2.0 3.0 0.00 0.00 0.00 64 1021.8
20171020060803 56 143 1.0 3.0 0.00 0.00 0.00 64 1021.8
20171020060302 57 143 1.0 2.0 0.00 0.00 0.00 63 1021.8
20171020055802 57 143 1.0 3.0 0.00 0.00 0.00 63 1021.8
20171020055302 57 143 2.0 3.0 0.00 0.00 0.00 62 1021.8
20171020054802 57 143 1.0 3.0 0.00 0.00 0.00 61 1021.7
20171020054302 57 143 2.0 2.0 0.00 0.00 0.00 61 1021.7
20171020053803 57 143 2.0 3.0 0.00 0.00 0.00 60 1021.7
20171020053302 57 143 2.0 3.0 0.00 0.00 0.00 60 1021.7
20171020052802 58 143 2.0 3.0 0.00 0.00 0.00 59 1021.7
20171020052302 58 143 2.0 3.0 0.00 0.00 0.00 57 1021.8
20171020051803 58 165 2.0 5.0 0.00 0.00 0.00 56 1021.8
20171020051302 58 152 2.0 3.0 0.00 0.00 0.00 54 1021.8
20171020050820 58 140 2.0 3.0 0.00 0.00 0.00 53 1021.9
20171020050303 58 139 2.0 3.0 0.00 0.00 0.00 52 1021.9
20171020045802 58 117 3.0 5.0 0.00 0.00 0.00 51 1021.9
20171020045302 58 141 2.0 6.0 0.00 0.00 0.00 50 1021.9
20171020044802 58 138 2.0 3.0 0.00 0.00 0.00 49 1021.9
20171020044303 58 143 3.0 6.0 0.00 0.00 0.00 48 1022.0
20171020043802 57 128 2.0 3.0 0.00 0.00 0.00 48 1022.0
20171020043303 57 137 2.0 3.0 0.00 0.00 0.00 48 1022.0
20171020042802 57 129 2.0 5.0 0.00 0.00 0.00 49 1022.0
20171020042303 57 150 2.0 3.0 0.00 0.00 0.00 48 1022.1
20171020041802 57 149 2.0 5.0 0.00 0.00 0.00 48 1022.0
20171020041303 57 123 2.0 3.0 0.00 0.00 0.00 47 1022.0
20171020040803 57 123 2.0 3.0 0.00 0.00 0.00 47 1022.0
20171020040303 57 124 2.0 3.0 0.00 0.00 0.00 47 1022.0
20171020035802 57 138 3.0 3.0 0.00 0.00 0.00 46 1022.0
20171020035302 57 138 3.0 3.0 0.00 0.00 0.00 46 1022.1
20171020034802 57 118 3.0 3.0 0.00 0.00 0.00 46 1022.0
20171020034302 57 120 2.0 3.0 0.00 0.00 0.00 47 1022.1
20171020033802 57 117 2.0 3.0 0.00 0.00 0.00 48 1022.0
20171020033302 57 116 2.0 3.0 0.00 0.00 0.00 48 1022.0
20171020032802 57 105 2.0 6.0 0.00 0.00 0.00 48 1022.0
20171020032302 57 136 2.0 3.0 0.00 0.00 0.00 48 1022.0
20171020031803 57 131 2.0 3.0 0.00 0.00 0.00 48 1021.9
20171020031302 57 131 2.0 3.0 0.00 0.00 0.00 47 1022.0
20171020030803 56 131 2.0 3.0 0.00 0.00 0.00 48 1022.0
20171020030302 56 125 2.0 3.0 0.00 0.00 0.00 48 1022.0
20171020025802 56 125 2.0 3.0 0.00 0.00 0.00 48 1022.0
20171020025302 56 87 2.0 3.0 0.00 0.00 0.00 49 1022.0
20171020024803 56 87 2.0 3.0 0.00 0.00 0.00 49 1022.0
20171020024303 57 87 2.0 3.0 0.00 0.00 0.00 49 1022.0
20171020023803 56 87 2.0 3.0 0.00 0.00 0.00 48 1022.0
20171020023302 57 86 2.0 3.0 0.00 0.00 0.00 49 1022.0
20171020022802 57 83 2.0 3.0 0.00 0.00 0.00 49 1022.0
20171020022303 57 83 2.0 3.0 0.00 0.00 0.00 49 1022.0
20171020021803 57 83 2.0 3.0 0.00 0.00 0.00 49 1022.0
20171020021302 57 83 2.0 3.0 0.00 0.00 0.00 50 1022.0
20171020020802 57 83 2.0 3.0 0.00 0.00 0.00 49 1022.0
20171020020302 57 83 2.0 3.0 0.00 0.00 0.00 49 1021.9
20171020015803 57 82 2.0 2.0 0.00 0.00 0.00 48 1021.9
20171020015303 57 82 1.0 3.0 0.00 0.00 0.00 48 1022.0
20171020014803 57 82 2.0 3.0 0.00 0.00 0.00 47 1021.9
20171020014302 57 82 1.0 2.0 0.00 0.00 0.00 47 1022.0
20171020013802 57 82 1.0 2.0 0.00 0.00 0.00 46 1022.0
20171020013303 58 82 1.0 2.0 0.00 0.00 0.00 46 1022.0
20171020012802 58 82 1.0 3.0 0.00 0.00 0.00 46 1022.0
20171020012302 58 82 1.0 2.0 0.00 0.00 0.00 45 1022.0
20171020011803 58 82 1.0 2.0 0.00 0.00 0.00 45 1022.0
20171020011303 58 82 1.0 3.0 0.00 0.00 0.00 45 1022.1
20171020010803 58 82 1.0 3.0 0.00 0.00 0.00 45 1022.1
20171020010303 59 82 1.0 2.0 0.00 0.00 0.00 45 1022.1
20171020005803 59 82 1.0 2.0 0.00 0.00 0.00 44 1022.1
20171020005302 59 82 1.0 2.0 0.00 0.00 0.00 44 1022.1
20171020004802 59 82 1.0 2.0 0.00 0.00 0.00 43 1022.1
20171020004304 60 82 1.0 2.0 0.00 0.00 0.00 43 1022.2
20171020003803 60 82 2.0 3.0 0.00 0.00 0.00 43 1022.2
20171020003303 60 82 1.0 3.0 0.00 0.00 0.00 44 1022.2
20171020002802 60 82 1.0 2.0 0.00 0.00 0.00 43 1022.2
20171020002303 60 82 1.0 2.0 0.00 0.00 0.00 43 1022.1
20171020001803 61 82 1.0 2.0 0.00 0.00 0.00 44 1022.1
20171020001303 61 82 1.0 2.0 0.00 0.00 0.00 43 1022.1
20171020000802 61 82 1.0 2.0 0.00 0.00 0.00 42 1022.1
20171020000303 61 82 1.0 2.0 0.00 0.00 0.00 43 1022.2
20171019235802 61 82 1.0 2.0 0.00 0.00 0.00 43 1022.1
20171019235303 62 82 1.0 2.0 0.00 0.00 0.00 41 1022.1
20171019234803 62 82 1.0 2.0 0.00 0.00 0.00 41 1022.0
20171019234303 62 82 0.0 2.0 0.00 0.00 0.00 40 1022.0
20171019233803 63 82 1.0 2.0 0.00 0.00 0.00 40 1021.9
20171019233303 63 82 1.0 2.0 0.00 0.00 0.00 39 1022.0
20171019232803 63 82 1.0 2.0 0.00 0.00 0.00 40 1022.0
20171019232303 63 82 1.0 2.0 0.00 0.00 0.00 39 1022.0
20171019231803 64 82 1.0 2.0 0.00 0.00 0.00 39 1022.0
20171019231303 64 82 1.0 2.0 0.00 0.00 0.00 40 1022.0
20171019230803 64 82 0.0 2.0 0.00 0.00 0.00 39 1022.0
20171019230302 65 82 0.0 0.0 0.00 0.00 0.00 39 1022.0
20171019225803 65 82 0.0 0.0 0.00 0.00 0.00 38 1022.0
20171019225303 65 82 0.0 0.0 0.00 0.00 0.00 37 1022.1
20171019224803 66 82 0.0 0.0 0.00 0.00 0.00 36 1022.0
20171019224303 66 82 0.0 0.0 0.00 0.00 0.00 36 1022.0
20171019223803 66 82 0.0 0.0 0.00 0.00 0.00 36 1022.1
20171019223303 67 82 0.0 0.0 0.00 0.00 0.00 35 1022.0
20171019222803 67 82 0.0 0.0 0.00 0.00 0.00 35 1022.1
20171019222303 68 82 0.0 0.0 0.00 0.00 0.00 34 1022.1
20171019221803 68 82 0.0 0.0 0.00 0.00 0.00 32 1022.0
20171019221303 68 82 0.0 0.0 0.00 0.00 0.00 32 1022.0
20171019220803 69 82 0.0 0.0 0.00 0.00 0.00 32 1022.0
20171019220303 69 82 0.0 0.0 0.00 0.00 0.00 31 1022.0
20171019215802 69 82 0.0 0.0 0.00 0.00 0.00 33 1022.1
20171019215303 70 82 0.0 0.0 0.00 0.00 0.00 30 1022.1
20171019214802 70 82 0.0 1.0 0.00 0.00 0.00 29 1022.0
20171019214303 70 82 1.0 2.0 0.00 0.00 0.00 27 1021.9
20171019213802 70 82 0.0 2.0 0.00 0.00 0.00 29 1021.8
20171019213303 71 82 1.0 1.0 0.00 0.00 0.00 27 1021.9
20171019212803 71 82 0.0 3.0 0.00 0.00 0.00 29 1021.9
20171019212303 71 183 0.0 2.0 0.00 0.00 0.00 26 1021.9
20171019211803 71 183 0.0 0.0 0.00 0.00 0.00 29 1021.9
20171019211303 71 183 0.0 1.0 0.00 0.00 0.00 27 1022.0
20171019210803 71 183 1.0 3.0 0.00 0.00 0.00 31 1022.0
20171019210303 71 183 0.0 2.0 0.00 0.00 0.00 29 1022.1
20171019205802 71 183 1.0 2.0 0.00 0.00 0.00 32 1022.1
20171019205303 71 183 1.0 2.0 0.00 0.00 0.00 27 1022.2
20171019204804 71 183 1.0 2.0 0.00 0.00 0.00 28 1022.2
20171019204303 71 183 2.0 3.0 0.00 0.00 0.00 30 1022.2
20171019203802 71 183 2.0 3.0 0.00 0.00 0.00 29 1022.2
20171019203303 71 60 0.0 2.0 0.00 0.00 0.00 26 1022.3
20171019202803 71 60 0.0 1.0 0.00 0.00 0.00 28 1022.3
20171019202303 71 60 0.0 2.0 0.00 0.00 0.00 25 1022.2
20171019201803 70 60 1.0 3.0 0.00 0.00 0.00 27 1022.2
20171019201303 71 60 1.0 2.0 0.00 0.00 0.00 29 1022.2
20171019200803 71 60 1.0 3.0 0.00 0.00 0.00 26 1022.2
20171019200304 71 60 1.0 3.0 0.00 0.00 0.00 27 1022.2
20171019195803 71 106 1.0 2.0 0.00 0.00 0.00 27 1022.2
20171019195303 71 106 1.0 2.0 0.00 0.00 0.00 30 1022.2
20171019194803 71 106 0.0 2.0 0.00 0.00 0.00 26 1022.2
20171019194303 71 106 1.0 2.0 0.00 0.00 0.00 29 1022.2
20171019193803 71 106 1.0 2.0 0.00 0.00 0.00 28 1022.3
20171019193303 71 108 2.0 3.0 0.00 0.00 0.00 28 1022.3
20171019192803 71 108 0.0 2.0 0.00 0.00 0.00 28 1022.3
20171019192302 70 108 0.0 1.0 0.00 0.00 0.00 27 1022.3
20171019191803 70 108 1.0 2.0 0.00 0.00 0.00 29 1022.3
20171019191303 70 108 1.0 3.0 0.00 0.00 0.00 28 1022.3
20171019190802 70 183 1.0 3.0 0.00 0.00 0.00 28 1022.2
20171019190303 70 164 1.0 3.0 0.00 0.00 0.00 28 1022.3
20171019185803 70 54 1.0 3.0 0.00 0.00 0.00 25 1022.4
20171019185303 71 102 2.0 3.0 0.00 0.00 0.00 28 1022.4
20171019184803 70 132 0.0 2.0 0.00 0.00 0.00 24 1022.5
20171019184303 70 131 1.0 2.0 0.00 0.00 0.00 26 1022.5
20171019183802 70 129 1.0 2.0 0.00 0.00 0.00 24 1022.5
20171019183303 70 130 1.0 3.0 0.00 0.00 0.00 24 1022.5
20171019182803 69 111 1.0 3.0 0.00 0.00 0.00 26 1022.5
20171019182303 69 107 1.0 2.0 0.00 0.00 0.00 26 1022.6
20171019181803 69 113 1.0 3.0 0.00 0.00 0.00 26 1022.6
20171019181303 69 131 1.0 3.0 0.00 0.00 0.00 25 1022.7
20171019180803 69 121 1.0 3.0 0.00 0.00 0.00 29 1022.7
20171019180303 68 88 0.0 2.0 0.00 0.00 0.00 25 1022.8
20171019175803 68 96 1.0 3.0 0.00 0.00 0.00 29 1022.9
20171019175303 68 98 1.0 2.0 0.00 0.00 0.00 28 1022.9
20171019174803 68 98 0.0 0.0 0.00 0.00 0.00 26 1023.0
20171019174303 67 98 2.0 3.0 0.00 0.00 0.00 27 1023.0
20171019173303 67 79 1.0 2.0 0.00 0.00 0.00 27 1023.0
20171019172803 66 79 1.0 3.0 0.00 0.00 0.00 26 1023.1
20171019172303 66 69 2.0 3.0 0.00 0.00 0.00 27 1023.1
20171019171803 66 66 1.0 2.0 0.00 0.00 0.00 27 1023.1
20171019171304 66 50 1.0 1.0 0.00 0.00 0.00 28 1023.1
20171019170803 66 50 2.0 3.0 0.00 0.00 0.00 30 1023.1
20171019170303 66 50 1.0 2.0 0.00 0.00 0.00 34 1023.2
20171019165802 65 50 1.0 2.0 0.00 0.00 0.00 31 1023.3
20171019165303 65 48 1.0 1.0 0.00 0.00 0.00 30 1023.2
20171019164804 65 48 1.0 3.0 0.00 0.00 0.00 32 1023.2
20171019163803 65 49 1.0 1.0 0.00 0.00 0.00 33 1023.2
20171019163304 65 49 1.0 2.0 0.00 0.00 0.00 30 1023.2
20171019162804 65 49 1.0 3.0 0.00 0.00 0.00 33 1023.2
20171019162303 65 49 2.0 3.0 0.00 0.00 0.00 34 1023.1
20171019161803 64 49 1.0 2.0 0.00 0.00 0.00 33 1023.1
20171019161304 64 49 2.0 3.0 0.00 0.00 0.00 32 1023.1
20171019160803 64 49 1.0 2.0 0.00 0.00 0.00 33 1023.2
20171019160303 64 49 1.0 3.0 0.00 0.00 0.00 33 1023.2
20171019155803 64 49 1.0 2.0 0.00 0.00 0.00 34 1023.1
20171019155303 64 49 1.0 2.0 0.00 0.00 0.00 33 1023.1
20171019154804 64 49 2.0 3.0 0.00 0.00 0.00 35 1023.1
20171019154303 63 49 1.0 3.0 0.00 0.00 0.00 37 1023.1
20171019153803 63 48 1.0 3.0 0.00 0.00 0.00 41 1023.0
20171019153303 63 50 2.0 3.0 0.00 0.00 0.00 39 1023.0
20171019152803 62 50 1.0 2.0 0.00 0.00 0.00 45 1023.0
20171019152303 62 50 1.0 3.0 0.00 0.00 0.00 44 1023.0
20171019151803 61 40 2.0 3.0 0.00 0.00 0.00 44 1022.9
20171019151303 61 45 2.0 3.0 0.00 0.00 0.00 44 1022.8
20171019150804 60 7 1.0 2.0 0.00 0.00 0.00 49 1022.9
20171019150303 60 5 1.0 2.0 0.00 0.00 0.00 53 1022.8
20171019145804 60 5 1.0 2.0 0.00 0.00 0.00 55 1022.9
20171019145303 59 7 1.0 3.0 0.00 0.00 0.00 54 1022.9
20171019144803 59 354 1.0 3.0 0.00 0.00 0.00 59 1022.8
20171019144304 58 252 1.0 2.0 0.00 0.00 0.00 62 1022.8
20171019143803 58 251 1.0 2.0 0.00 0.00 0.00 65 1022.8
20171019143303 57 251 1.0 2.0 0.00 0.00 0.00 66 1022.7
20171019142803 57 251 1.0 2.0 0.00 0.00 0.00 72 1022.6
20171019142303 56 251 1.0 2.0 0.00 0.00 0.00 73 1022.6
20171019141803 56 251 0.0 3.0 0.00 0.00 0.00 76 1022.6
20171019141303 55 251 2.0 3.0 0.00 0.00 0.00 76 1022.5
20171019140803 55 235 1.0 3.0 0.00 0.00 0.00 80 1022.6
20171019140303 54 232 1.0 2.0 0.00 0.00 0.00 81 1022.5